Tracking 35331 objects as of 15-Sep-2026
HD Live streaming from Space Station
objects crossing your sky now

SCOT-1 (SCOT)

Track SCOT-1 (SCOT) now!
10-day predictions


NORAD ID: 62617
Int'l Code: 2025-009J
Launch date: January 14, 2025
Source: Singapore (SING)
Launch site: AIR FORCE WESTERN TEST RANGE (AFWTR)
Your satellite tracking list
Your tracking list is empty




NASA's NSSDC Master Catalog

Two Line Element Set (TLE):
1 62617U 25009J   26256.77448216  .00104205  00000-0  94047-3 0  9997
2 62617  97.3796 348.1858 0002231 283.3405  76.7607 15.67814968 93162
Source of the keplerian elements: AFSPC